Change the Weather History Date:

Wednesday, July 2, 2014

  Actual Average Record
Temperature  
Mean Temperature 66 °F 72 °F  
Max Temperature 74 °F 83 °F 96 °F (1949)
Min Temperature 58 °F 61 °F 39 °F (2001)
Degree Days  
Heating Degree Days 0 0  
Month to date heating degree days 0 0  
Since 1 June heating degree days 19 48  
Since 1 July heating degree days 0 0  
Cooling Degree Days 1 7  
Month to date cooling degree days 10 14  
Year to date cooling degree days 244 200  
Since 1 June cooling degree days 190 159  
Growing Degree Days 16 (Base 50)    
Moisture  
Dew Point 56 °F    
Average Humidity 65    
Maximum Humidity 81    
Minimum Humidity 49    
Precipitation  
Precipitation T in 0.10 in 1.83 in (2008)
Month to date precipitation 1.31 0.19  
Year to date precipitation 13.60 16.21  
Sea Level Pressure  
Sea Level Pressure 29.88 in    
Wind  
Wind Speed 10 mph (West)    
Max Wind Speed 18 mph    
Max Gust Speed 24 mph    
Visibility 10 miles    
Events Rain    
T = Trace of Precipitation, MM = Missing Value Source: NWS Daily Summary

Daily Weather History Graph

Daily Weather History Graph

Search for Another Location

Airport or City:

Trip Planner

Search our weather history database for the weather conditions in past years. The results will help you decide how hot, cold, wet, or windy it might be!

Date:

Astronomy

Jul. 02, 2014 Rise Set
Actual Time 6:10 AM EDT 9:22 PM EDT
Civil Twilight 5:35 AM EDT 9:56 PM EDT
Nautical Twilight 4:51 AM EDT 10:40 PM EDT
Astronomical Twilight 3:57 AM EDT 11:34 PM EDT
Moon 11:18 AM EDT (7/2) No Moon Set
Length of Visible Light 16h 20m
Length of Day
15h 12m
Waxing Crescent, 24% of the Moon is Illuminated
Jul 2
Waxing Crescent
Jul 5
First Quarter
Jul 12
Full
Jul 18
Last Quarter
Jul 26
New

Hourly Weather History & Observations

Time (EDT) Temp. Dew Point Humidity Pressure Visibility Wind Dir Wind Speed Gust Speed Precip Events Conditions
12:53 AM 70.0 °F 62.1 °F 76% 29.76 in 10.0 mi SW 6.9 mph - N/A   Clear
1:53 AM 68.0 °F 62.1 °F 81% 29.78 in 10.0 mi South 6.9 mph - N/A   Clear
2:53 AM 68.0 °F 62.1 °F 81% 29.78 in 10.0 mi SSW 8.1 mph - N/A   Clear
3:53 AM 68.0 °F 62.1 °F 81% 29.77 in 10.0 mi SW 6.9 mph - N/A   Partly Cloudy
4:53 AM 68.0 °F 62.1 °F 81% 29.77 in 10.0 mi Calm Calm - 0.00 in Rain Light Rain
5:53 AM 68.0 °F 62.1 °F 81% 29.78 in 10.0 mi SW 10.4 mph - 0.00 in   Overcast
6:53 AM 68.0 °F 62.1 °F 81% 29.80 in 10.0 mi West 10.4 mph - N/A   Mostly Cloudy
7:27 AM 66.9 °F 60.1 °F 79% 29.82 in 10.0 mi West 8.1 mph - N/A   Scattered Clouds
7:53 AM 68.0 °F 60.1 °F 76% 29.82 in 10.0 mi WNW 11.5 mph - N/A   Scattered Clouds
8:08 AM 68.0 °F 61.0 °F 78% 29.84 in 10.0 mi West 12.7 mph - N/A   Mostly Cloudy
8:53 AM 68.0 °F 57.0 °F 68% 29.85 in 10.0 mi West 12.7 mph - N/A   Mostly Cloudy
9:00 AM 68.0 °F 55.9 °F 65% 29.86 in 10.0 mi West 16.1 mph - N/A   Scattered Clouds
9:53 AM 68.0 °F 55.9 °F 65% 29.86 in 10.0 mi West 12.7 mph - N/A   Scattered Clouds
10:53 AM 68.0 °F 53.1 °F 59% 29.88 in 10.0 mi West 16.1 mph 23.0 mph N/A   Mostly Cloudy
11:53 AM 71.1 °F 55.9 °F 59% 29.88 in 10.0 mi West 12.7 mph - N/A   Scattered Clouds
12:53 PM 71.1 °F 53.1 °F 53% 29.88 in 10.0 mi West 15.0 mph 23.0 mph N/A   Scattered Clouds
1:53 PM 72.0 °F 53.1 °F 51% 29.89 in 10.0 mi West 10.4 mph - N/A   Scattered Clouds
2:53 PM 70.0 °F 54.0 °F 57% 29.91 in 10.0 mi WNW 11.5 mph 21.9 mph N/A   Overcast
3:53 PM 72.0 °F 55.0 °F 55% 29.92 in 10.0 mi WNW 13.8 mph 23.0 mph N/A   Partly Cloudy
4:53 PM 73.4 °F 53.6 °F 50% 29.93 in 10.0 mi West 10.4 mph 24.2 mph N/A   Scattered Clouds
5:53 PM 70.0 °F 53.1 °F 55% 29.93 in 10.0 mi West 15.0 mph - N/A   Overcast
6:53 PM 68.0 °F 55.9 °F 65% 29.93 in 10.0 mi WNW 13.8 mph - N/A   Scattered Clouds
7:16 PM 66.0 °F 55.9 °F 70% 29.94 in 10.0 mi WNW 11.5 mph 20.7 mph N/A   Mostly Cloudy
7:53 PM 64.9 °F 55.9 °F 73% 29.95 in 10.0 mi West 9.2 mph - N/A   Overcast
8:53 PM 61.0 °F 54.0 °F 78% 29.96 in 10.0 mi WNW 11.5 mph - N/A   Overcast
9:53 PM 60.1 °F 50.0 °F 69% 29.98 in 10.0 mi West 9.2 mph - N/A   Overcast
10:53 PM 59.0 °F 48.9 °F 69% 29.99 in 10.0 mi West 6.9 mph - N/A   Overcast
11:00 PM 59.0 °F 48.9 °F 69% 29.99 in 10.0 mi West 6.9 mph - N/A   Overcast
11:53 PM 59.0 °F 51.1 °F 75% 29.98 in 10.0 mi WNW 6.9 mph - N/A   Overcast